Regional Weather Roundup
Issued by NWS

Home | Current Version | Previous Version | Text Only | Print | Product List | Glossary On
Versions: 1 2 3 4 5 6 7 8 9 10 11 12 13 14 15 16 17 18 19 20 21 22 23 24 25 26 27 28 29 30 31 32 33 34 35 36 37 38 39 40 41 42 43 44 45 46 47 48 49 50
000
ASUS44 KOUN 282010
RWROK

WEATHER ROUNDUP FOR OKLAHOMA
NATIONAL WEATHER SERVICE NORMAN OK
200 PM CST FRI NOV 28 2014

NOTE: "FAIR" INDICATES FEW OR NO CLOUDS BELOW 12,000 FEET WITH NO
      SIGNIFICANT WEATHER AND/OR OBSTRUCTIONS TO VISIBILITY.

OKZ001>007-009>012-014-015-017-282100-
NORTHWEST OKLAHOMA AND THE PANHANDLE

CITY           SKY/WX    TMP DP  RH WIND       PRES   REMARKS
GAGE           SUNNY     73  29  19 S12       29.84F
ENID/WOODRING  MOSUNNY   63  37  39 S21G28    29.87F
$$

OKZ016-021>023-033>039-044-045-282100-
SOUTHWEST OKLAHOMA

CITY           SKY/WX    TMP DP  RH WIND       PRES   REMARKS
LAWTON/REGL    SUNNY     67  42  40 S17G24    29.95F
LAWTON/FT SILL SUNNY     67  43  41 S16G25    29.93F
FREDERICK      SUNNY     69  43  38 S21       29.91F
CLINTON        SUNNY     66  34  30 S18       29.91F
HOBART         SUNNY     65  39  38 SW23      29.92F
ALTUS AFB      SUNNY     69  40  34 S16       29.92F
$$

OKZ018>020-024>031-282100-
CENTRAL OKLAHOMA

CITY           SKY/WX    TMP DP  RH WIND       PRES   REMARKS
OKLAHOMA CITY  PTSUNNY   67  38  34 S17G28    29.92F
OKC/WILEY POST SUNNY     65  38  36 SW22G29   29.91F
OKC/TINKER AFB SUNNY     64  38  37 S22G31    29.92F
STILLWATER     MOSUNNY   67  35  30 S17G24    29.90F
GUTHRIE        SUNNY     66  36  32 S17G25    29.90F
$$

OKZ008-013-054>072-282100-
NORTHEAST OKLAHOMA

CITY           SKY/WX    TMP DP  RH WIND       PRES   REMARKS
TULSA          MOSUNNY   64  37  36 S20G29    29.93F
TULSA/JONES    SUNNY     64  36  35 S18G26    29.93F
PONCA CITY     SUNNY     65  35  33 S14G23    29.87F
BARTLESVILLE   SUNNY     64  35  34 S14G24    29.91F
MUSKOGEE       SUNNY     64  38  38 S21       30.00F
$$

OKZ032-040>043-046>053-073>077-282100-
SOUTH CENTRAL/SOUTHEAST OKLAHOMA

CITY           SKY/WX    TMP DP  RH WIND       PRES   REMARKS
ARDMORE/DWNTWN SUNNY     66  37  34 SW13G20   30.01F
MCALESTER      MOSUNNY   67  40  37 S13G21    30.01F
$$




USA.gov is the U.S. government's official web portal to all federal, state and local government web resources and services.